Port Isabel, TX

9:47 PM CDT on June 23, 2017 (GMT -0500)
Port Isabel-Cameron County

Weather History for KPIL - May, 2013

Change the Weather History Date:

Friday, May 3, 2013

  Actual Average (KBRO) Record (KBRO)
Temperature  
Mean Temperature 63 °F -  
Max Temperature 72 °F 85 °F 98 °F (1984)
Min Temperature 55 °F 68 °F 50 °F (1893)
Degree Days  
Heating Degree Days 2    
Growing Degree Days 13 (Base 50)    
Moisture  
Dew Point 36 °F    
Average Humidity 40    
Maximum Humidity 60    
Minimum Humidity 21    
Precipitation  
Precipitation 0.00 in - - ()
Sea Level Pressure  
Sea Level Pressure 30.21 in    
Wind  
Wind Speed 20 mph (North)    
Max Wind Speed 30 mph    
Max Gust Speed 38 mph    
Visibility 10 miles    
Events      
Averages and records for this station are not official NWS values.
T = Trace of Precipitation, MM = Missing Value Source: NWS Daily Summary

Daily Weather History Graph

Daily Weather History Graph

Search for Another Location

Airport or City:

Trip Planner

Search our weather history database for the weather conditions in past years. The results will help you decide how hot, cold, wet, or windy it might be!

Date:

Astronomy

May. 03, 2013 Rise Set
Actual Time 6:50 AM CDT 8:02 PM CDT
Civil Twilight 6:25 AM CDT 8:26 PM CDT
Nautical Twilight 5:56 AM CDT 8:55 PM CDT
Astronomical Twilight 5:27 AM CDT 9:25 PM CDT
Moon 2:39 AM CDT (5/3) 2:32 PM CDT (5/3)
Length of Visible Light 14h 00m
Length of Day
13h 12m
Last Quarter, 37% of the Moon is Illuminated
May 3
Last Quarter
May 9
New
May 17
First Quarter
May 24
Full
May 31
Last Quarter

Hourly Weather History & Observations

Time (CDT) Temp. Dew Point Humidity Pressure Visibility Wind Dir Wind Speed Gust Speed Precip Events Conditions
12:39 AM 60.8 °F 46.4 °F 59% 30.22 in 10.0 mi North 20.7 mph 32.2 mph N/A   Overcast
12:53 AM 60.1 °F 46.0 °F 60% 30.23 in 10.0 mi North 21.9 mph 29.9 mph N/A   Overcast
1:21 AM 59.0 °F 44.6 °F 59% 30.23 in 10.0 mi NNW 20.7 mph 32.2 mph N/A   Overcast
1:53 AM 59.0 °F 44.1 °F 58% 30.22 in 10.0 mi NNW 26.5 mph 34.5 mph N/A   Overcast
3:53 AM 55.9 °F 39.9 °F 55% 30.22 in 10.0 mi NNW 20.7 mph 33.4 mph N/A   Overcast
4:53 AM 55.9 °F 37.9 °F 51% 30.23 in 10.0 mi NNW 23.0 mph 38.0 mph N/A   Overcast
5:53 AM 55.0 °F 36.0 °F 49% 30.23 in 10.0 mi NNW 19.6 mph 32.2 mph N/A   Clear
6:53 AM 55.0 °F 34.0 °F 45% 30.27 in 10.0 mi NNW 23.0 mph 32.2 mph N/A   Clear
7:53 AM 55.9 °F 32.0 °F 40% 30.30 in 10.0 mi NNW 24.2 mph 31.1 mph N/A   Partly Cloudy
8:53 AM 57.9 °F 28.9 °F 33% 30.31 in 10.0 mi NNW 29.9 mph 38.0 mph N/A   Scattered Clouds
9:53 AM 61.0 °F 27.0 °F 27% 30.32 in 10.0 mi NNW 25.3 mph 36.8 mph N/A   Clear
10:53 AM 63.0 °F 27.0 °F 26% 30.32 in 10.0 mi NNW 25.3 mph 36.8 mph N/A   Clear
11:53 AM 66.0 °F 26.1 °F 22% 30.30 in 10.0 mi NNW 24.2 mph 32.2 mph N/A   Clear
12:53 PM 68.0 °F 27.0 °F 21% 30.27 in 10.0 mi NW 21.9 mph 29.9 mph N/A   Clear
1:53 PM 69.1 °F 34.0 °F 27% 30.23 in 10.0 mi North 15.0 mph 23.0 mph N/A   Clear
2:53 PM 70.0 °F 30.0 °F 23% 30.20 in 10.0 mi NNE 18.4 mph 27.6 mph N/A   Clear
3:53 PM 71.1 °F 30.9 °F 23% 30.17 in 10.0 mi NNE 19.6 mph 25.3 mph N/A   Clear
4:53 PM 71.1 °F 28.9 °F 21% 30.14 in 10.0 mi NNE 18.4 mph 26.5 mph N/A   Clear
5:53 PM 71.1 °F 30.9 °F 23% 30.12 in 10.0 mi NNE 16.1 mph 20.7 mph N/A   Clear
6:53 PM 68.0 °F 37.9 °F 33% 30.10 in 10.0 mi NE 16.1 mph 20.7 mph N/A   Clear
7:53 PM 64.0 °F 39.9 °F 41% 30.11 in 10.0 mi NE 6.9 mph - N/A   Clear
8:53 PM 61.0 °F 41.0 °F 48% 30.12 in 10.0 mi NE 4.6 mph - N/A   Clear
9:53 PM 60.1 °F 42.1 °F 51% 30.13 in 10.0 mi NE 4.6 mph - N/A   Clear
10:53 PM 59.0 °F 44.1 °F 58% 30.14 in 10.0 mi ENE 6.9 mph - N/A   Clear
11:53 PM 59.0 °F 44.1 °F 58% 30.12 in 10.0 mi ENE 5.8 mph - N/A   Clear